CZ-6A DEB, 56621

Orbit data source: Space-Track

CZ-6A DEB, 56621 is space debris in SSO originally from a launch on Fri, 11 Nov 2022 UTC launched from the Taiyaun Space Center, China (TSC). Debris objects in space refer to the collection of defunct objects orbiting the Earth. Examples of debris include non-operational satellites, rocket bodies, and fragments generated from explosions, collisions, or faulty payload assembly.

Loading next visibility...
Identifier
56621, 2022-151AEV
Orbit
SSO
Country
Flag of CNCN / PRC
Related business
Manufacturer
SAST
Mission
Spacecraft
Bus & Motor
Unknown
Mass
Unknown
Launch date (UTC)
2022-11-11 (4 years ago)
Launch vehicle
Unknown
Launch site
Taiyaun Space Center, China (TSC)
Object type
Payload
Rocket body
Debris
Shape & HBR
Unknown shape, 0.1 m
Radar Cross Section
Medium (>0.1 m² and <1 m²)

Expand to show TLE details & history
Last TLE update: 4 days ago

TLE from 4 days ago
0 CZ-6A DEB
1 56621U 22151AEV 26260.89663362  .00000918  00000-0  65017-3 0  9990
2 56621  98.9377 234.4936 0113948 174.2864 185.9629 13.97160574178227
Epoch: 2026-09-17T21:31Z
TLE epoch observation values (Epoch: 2026-09-17T21:31:09.144Z)
Latitude
-0.00004°
Longitude
-85.12179°
Altitude
989.072 km
Speed
7.315 km/s
True Right ascension
15h 37m 58s
True Declination
0° 00' 00"
Sunlit
Object was in daylight at epoch
Visualization orbit readout
Latitude
Unknown
Longitude
Unknown
Altitude
Unknown
Speed
Unknown
Apparent Right ascension
Unknown
Apparent Declination
Unknown
Sunlit
N/A
Visualization observer readout
Local Sidereal Time
12:53:57
Azimuth
Unknown
Elevation
Unknown
Doppler factor
Unknown
Orbital elements
Apogee altitude
983.786 km
Perigee altitude
817.901 km
Semi-major axis
7,278.981 km
Eccentricity
0.01139
Inclination
98.9377°
RAAN
234.4936°
Arg. of periapsis
174.2864°
True anomaly
185.82915°
Mean anomaly
185.9629°
Eccentric anomaly
185.89584°
Mean motion
3.49492 °/min
Orbital period
103.01 mins
BSTAR
0.00065017
Loading maneuver chart data...
Computing Atmospheric mass density...
Loading historical data...
Loading historical data...
Loading historical data...
Loading historical data...
Loading historical data...
Loading historical data...
Loading historical data...

Documentation

Showing up to 5 results
|